Volver al catálogo

BREEZE-M R/B

ActivoMEO
NORAD 39376·ROCKET BODY·🇷🇺 Russia

Lanzado Nov 11, 2013 desde Baikonur Cosmodrome

Loading…

Próximos Pases (próximas 24 horas)

TLE

ActualizadoSource: Space-Track

Época: Sep 14, 2026, 09:35 UTC

1 39376U 13062B   26257.39974589 -.00000227  00000-0  00000-0 0  9998
2 39376   9.6046  50.7670 0233161 119.1563 243.2906  1.04210279 48871

Sigue BREEZE-M R/B en tiempo real con AllMySat

Download on the App Store